Regional Weather Roundup
Issued by NWS

Home | Current Version | Previous Version | Text Only | Print | Product List | Glossary On
Versions: 1 2 3 4 5 6 7 8 9 10 11 12 13 14 15 16 17 18 19 20 21 22 23 24 25 26 27 28 29 30 31 32 33 34 35 36 37 38 39 40 41 42 43 44 45 46 47 48 49 50
000
ASUS46 KSTO 021404
RWRCA

NORTHERN AND CENTRAL CA REGIONAL WEATHER ROUNDUP
NATIONAL WEATHER SERVICE SACRAMENTO CA
700 AM PDT TUE SEP 02 2014

NOTE: FAIR INDICATES FEW OR NO CLOUDS BELOW 12,000 FEET WITH NO
SIGNIFICANT WEATHER AND/OR OBSTRUCTIONS TO VISIBILITY.

CAZ001-003-021500-
NORTHWEST AREA

CITY           SKY/WX    TMP DP  RH WIND       PRES   REMARKS
CRESCENT CITY  FOG       51  51 100 N3        29.84S VSB 1/4
UKIAH          CLEAR     58  48  69 CALM      29.81R
$$

CAZ006-505>513-021500-
BAY AREA

CITY           SKY/WX    TMP DP  RH WIND       PRES   REMARKS
SANTA ROSA     FOG       54  54 100 S3        29.80R VSB 1/4
SAN RAFAEL     N/A       60  MM  MM MISG
NAPA           PTCLDY    57  56  96 SW5       29.81R
CONCORD        CLEAR     62  55  77 SW8       29.79R
OAKLAND CITY   N/A       62  MM  MM MISG
OAKLAND        CLOUDY    62  56  80 W8        29.83R
SAN FRAN CITY  N/A       59  MM  93 MISG
SAN FRAN ARPT  PTCLDY    60  58  92 W7        29.83R
LIVERMORE      CLEAR     61  56  83 NW5       29.81R
HAYWARD        MOCLDY    64  60  87 CALM      29.83R
REDWOOD CITY   N/A       MM  MM  MM MISG
MOFFETT ARPT   PTCLDY    62  58  86 CALM      29.84R
SAN JOSE ARPT  PTCLDY    62  57  83 CALM      29.83R
$$
CAZ034-037-514>518-021500-
CENTRAL COAST

CITY           SKY/WX    TMP DP  RH WIND       PRES   REMARKS
WATSONVILLE    CLOUDY    62  59  90 E3        29.86R FOG
SALINAS        CLOUDY    61  57  87 SW5       29.85R
MONTEREY       CLOUDY    58  57  97 S3        29.86R
SAN LUIS OBISP CLOUDY    59  57  93 CALM      29.87R FOG
SANTA MARIA    CLOUDY    61  57  87 CALM      29.87R FOG
$$
CAZ015-016-021500-
NORTHERN SACRAMENTO VALLEY

CITY           SKY/WX    TMP DP  RH WIND       PRES   REMARKS
REDDING        CLEAR     62  42  47 CALM      29.78R
RED BLUFF      CLEAR     66  42  41 NW7       29.78R
OROVILLE       CLEAR     68  53  58 CALM      29.78R
$$
CAZ016>018-021500-
SOUTHERN SACRAMENTO VALLEY

CITY           SKY/WX    TMP DP  RH WIND       PRES   REMARKS
AUBURN         CLEAR     72  43  35 E7        29.83R
BEALE AFB      CLEAR     67  45  44 E3        29.75R
LINCOLN        FAIR      68  43  40 SE5       29.76R
MARYSVILLE     CLEAR     67  49  52 E5        29.76R
SAC INTL ARPT  CLEAR     66  53  63 S8        29.75R
MATHER AIRPORT CLEAR     61  46  59 CALM      29.77R
DOWNTOWN SAC   N/A       67  MM  MM MISG
SAC EXEC ARPT  CLEAR     66  55  67 S8        29.76R
VACAVILLE      CLEAR     64  51  62 SW6       29.76R
TRAVIS AFB     CLEAR     62  59  88 SW17      29.75R
$$
CAZ019>021-021500-
SAN JOAQUIN VALLEY

CITY           SKY/WX    TMP DP  RH WIND       PRES   REMARKS
STOCKTON       CLEAR     64  54  69 NW5       29.77R
MODESTO        CLEAR     65  57  75 CALM      29.76R
MERCED         CLEAR     65  52  62 CALM      29.76R
LEMOORE        CLEAR     64  39  39 W8        29.79R
FRESNO         CLEAR     72  52  49 SE5       29.79R
HANFORD        CLEAR     63  56  78 CALM      29.79R
PORTERVILLE    CLEAR     64  46  52 SE5       29.81R
BAKERSFIELD    CLEAR     73  43  33 CALM      29.80R
$$
CAZ011-012-071-021500-
NORTHERN MOUNTAINS

CITY           SKY/WX    TMP DP  RH WIND       PRES   REMARKS
YREKA          CLEAR     48  31  51 CALM      29.95R
MOUNT SHASTA   CLEAR     47  37  68 CALM      29.96R
ALTURAS        CLEAR     41  28  60 CALM      30.01S
$$
CAZ011-012-071-021500-
SIERRA NEVADA MTNS

CITY           SKY/WX    TMP DP  RH WIND       PRES   REMARKS
BLUE CANYON    CLEAR     68  35  29 SE3       30.08R
TRUCKEE        CLEAR     39  36  87 CALM      30.13R
TAHOE VLY ARPT CLEAR     44  34  67 CALM      30.14R
MAMMOTH LAKES  FAIR      41  27  56 CALM      30.21R
$$




USA.gov is the U.S. government's official web portal to all federal, state and local government web resources and services.